Regional Weather Roundup
Issued by NWS

Home | Current Version | Previous Version | Graphics & Text | Print | Product List | Glossary On
Versions: 1 2 3 4 5 6 7 8 9 10 11 12 13 14 15 16 17 18 19 20 21 22 23 24 25 26 27
000
ASUS45 KCYS 152010
RWRWY

WYOMING REGIONAL WEATHER ROUNDUP
NATIONAL WEATHER SERVICE CHEYENNE WY
100 PM MST SUN JAN 15 2017

NOTE:  "FAIR" INDICATES FEW OR NO CLOUDS BELOW 12,000 FEET
WITH NO SIGNIFICANT WEATHER AND/OR OBSTRUCTIONS TO VISIBILITY.

WYZ001-152100-
YELLOWSTONE NATIONAL PARK

CITY           SKY/WX    TMP DP  RH WIND       PRES   REMARKS
LK YELLOWSTONE   N/A      1  -5  75 CALM      30.07F
W YELLOWSTONE  NOT AVBL

$$
WYZ002>013-054>058-071-098>099-152100-
NORTHERN WYOMING

CITY           SKY/WX    TMP DP  RH WIND       PRES   REMARKS
JACKSON        SUNNY     -2  -6  84 CALM      30.12F
CODY           FAIR      32  12  43 N3        30.00F
GREYBULL       FAIR      -4 -11  72 N7        30.11F WCI -18
WORLAND        FAIR       5   0  79 CALM      30.08F
SHERIDAN       FAIR      21   6  52 VRB6      29.99F WCI  13
BUFFALO        FAIR      35   3  26 S7        29.99F WCI  29
GILLETTE       FAIR      33  17  51 S6        30.00F WCI  28
HULETT         FAIR      32  18  55 W7        30.01F WCI  26
NEWCASTLE      FAIR      28  16  59 CALM      30.04F

$$
WYZ014>020-022>026-101>103-152100-
CENTRAL WYOMING

CITY           SKY/WX    TMP DP  RH WIND       PRES   REMARKS
BIG PINEY      FAIR      -5  -8  87 CALM      30.07F
PINEDALE       FAIR       1  -2  85 NE3       30.07F
DUBOIS         NOT AVBL
LANDER         FAIR      12   6  77 CALM      30.04F
RIVERTON       FAIR       4   0  83 NE3       30.07F
CASPER         FAIR      31  19  61 SW14      30.02F WCI  21
DOUGLAS        FAIR      37  20  50 NW9       30.02F WCI  30

$$
WYZ021-027>030-104>119-152100-
SOUTHERN WYOMING

CITY           SKY/WX    TMP DP  RH WIND       PRES   REMARKS
EVANSTON       FAIR       8   4  83 CALM      30.04F
ROCK SPRINGS   LGT SNOW  10   7  87 W7        30.06F VSB 1   WCI  -1
RAWLINS        FOG       18  14  84 SE3       30.03F VSB 3/4
LARAMIE        CLOUDY    21  18  88 CALM      29.98F
CHEYENNE       CLOUDY    38  23  55 NE3       29.99F
TORRINGTON     FAIR      36  23  59 CALM      30.03F

$$




USA.gov is the U.S. government's official web portal to all federal, state and local government web resources and services.